Home   Weather   Almere   Past weeks
Flag for Netherlands

Past Weather in Almere, Netherlands — Yesterday and Last 2 Weeks

Now
70 °F

Scattered clouds.


Feels Like: 70 °F
Forecast: 72 / 59 °F
Wind: 12 mph from Southwest

Location: Amsterdam Schiphol Airport

Current Time: Jul 18, 2019 at 3:16:56 pm

Latest Report: Jul 18, 2019 at 2:25 pm


Visibility: N/A

Pressure: 29.83 "Hg

Humidity: 69%

Dew Point: 59 °F

Location of AlmereLocation

Past Weather in Almere — Graph

°F

Almere Temperature Yesterday

Maximum temperature yesterday: 75 °F (at 2:55 pm)
Minimum temperature yesterday: 52 °F (at 3:25 am)
Average temperature yesterday: 64 °F

High & Low Weather Summary for the Past Weeks

 TemperatureHumidityPressure
High75 °F (Jul 17, 2:55 pm)100% (Jul 12, 1:55 am)30.33 "Hg (Jul 12, 1:55 am)
Low46 °F (Jul 9, 3:25 am)40% (Jul 9, 3:25 pm)29.83 "Hg (Jul 6, 7:25 am)
Average61 °F75%30.05 "Hg
* Reported Jul 3 1:25 pm — Jul 18 1:55 pm, Almere. Weather by CustomWeather, © 2019

Note: Actual official high and low records may vary slightly from our data, if they occured in-between our weather recording intervals... More about our weather records

Advertising

Almere Weather History for the Previous 24 Hours

Scroll right to see more
 ConditionsComfort  
Time TempWeatherWind HumidityBarometerVisibility
1:55 pm
Thu, Jul 18
70 °FPassing clouds.10 mph69%29.83 "HgN/A
1:25 pm70 °FPassing clouds.14 mph69%29.83 "HgN/A
12:55 pm70 °FPassing clouds.13 mph73%29.83 "HgN/A
12:25 pm72 °FScattered clouds.8 mph65%29.83 "HgN/A
11:55 am73 °FScattered clouds.12 mph57%29.83 "HgN/A
11:25 am72 °FPassing clouds.9 mph61%29.83 "HgN/A
10:55 am72 °FPassing clouds.8 mph65%29.83 "HgN/A
10:25 am70 °FPassing clouds.7 mph64%29.83 "HgN/A
9:55 am68 °FPassing clouds.9 mph69%29.83 "HgN/A
9:25 am68 °FPassing clouds.8 mph69%29.83 "HgN/A
8:55 am66 °FPassing clouds.8 mph73%29.83 "HgN/A
8:25 am66 °FPassing clouds.8 mph68%29.83 "HgN/A
7:55 am66 °FSunny.10 mph68%29.83 "Hg10 mi
7:25 am64 °FSunny.9 mph73%29.83 "Hg10 mi
6:55 am63 °FSunny.7 mph77%29.83 "Hg10 mi
6:25 am63 °FSunny.8 mph77%29.83 "Hg10 mi
5:55 am63 °FSunny.8 mph77%29.83 "Hg10 mi
5:25 am63 °FClear.9 mph77%29.83 "Hg10 mi
4:55 am63 °FClear.8 mph77%29.83 "Hg10 mi
4:25 am63 °FClear.8 mph77%29.83 "Hg10 mi
3:55 am63 °FClear.7 mph77%29.86 "Hg10 mi
3:25 am64 °FClear.7 mph73%29.86 "Hg10 mi
2:55 am64 °FClear.6 mph73%29.86 "Hg10 mi
2:25 am64 °FClear.7 mph73%29.86 "Hg10 mi
1:55 am64 °FClear.8 mph73%29.89 "Hg10 mi
1:25 am64 °FClear.7 mph73%29.89 "Hg10 mi
12:55 am63 °FClear.6 mph77%29.89 "Hg10 mi
12:25 am61 °FClear.6 mph83%29.89 "Hg10 mi
11:55 pm
Wed, Jul 17
63 °FClear.3 mph77%29.89 "Hg10 mi
11:25 pm64 °FClear.2 mph73%29.89 "Hg10 mi
10:55 pm64 °FClear.3 mph73%29.92 "Hg10 mi
10:25 pm64 °FClear.2 mph68%29.92 "Hg10 mi
9:55 pm66 °FPassing clouds.3 mph64%29.92 "HgN/A
9:25 pm66 °FSunny.3 mph64%29.92 "Hg10 mi
8:55 pm68 °FSunny.5 mph64%29.92 "Hg10 mi
8:25 pm70 °FPassing clouds.6 mph60%29.92 "HgN/A
7:55 pm72 °FPassing clouds.6 mph57%29.92 "HgN/A
7:25 pm73 °FPassing clouds.6 mph53%29.92 "HgN/A
6:55 pm73 °FPassing clouds.3 mph57%29.92 "HgN/A
6:25 pm73 °FSunny.2 mph53%29.92 "Hg10 mi
5:55 pm73 °FPassing clouds.6 mph53%29.95 "HgN/A
5:25 pm73 °FPassing clouds.2 mph50%29.95 "HgN/A
4:55 pm73 °FPassing clouds.1 mph50%29.95 "HgN/A
4:25 pm73 °FPassing clouds.2 mph50%29.95 "HgN/A
3:55 pm73 °FPassing clouds.3 mph50%29.95 "HgN/A
3:25 pm75 °FPassing clouds.3 mph50%29.95 "HgN/A
Weather by CustomWeather, © 2019

See weather overview